This demonstration page uses our WeatherBlox Daily Observations layout. Learn more.

Left ArrowRight Arrow

Hourly Observations for December 6, 2021

Temp ( °F °C ) Dew Point ( °F °C ) Humidity (%) Winds ( mph kmh ) Pressure ( in mb ) Visibility ( mi km ) Precip ( " mm )
12:56 am 00:56 Clear 26 -3.3 16 -8.9 66 66 NNW 10 17 30.26 1025 10 16 0.00 0.00
1:56 am 01:56 Clear 25 -3.9 16 -8.9 69 69 NNW 12 19 30.29 1026 10 16 0.00 0.00
2:56 am 02:56 Clear 26 -3.3 15 -9.4 63 63 NNW 22 35 30.32 1027 10 16 0.00 0.00
3:56 am 03:56 Clear 25 -3.9 14 -10 63 63 NNW 14 22 30.33 1027 10 16 0.00 0.00
4:56 am 04:56 Clear 24 -4.4 15 -9.4 68 68 NW 8 13 30.34 1027 10 16 0.00 0.00
5:56 am 05:56 Mostly Cloudy 22 -5.6 14 -10 71 71 NW 9 15 30.35 1028 10 16 0.00 0.00
6:19 am 06:19 Partly Cloudy 21 -6 16 -9 80 80 NNW 16 26 30.46 1031 10 16 0.00 0.00
6:56 am 06:56 Clear 21 -6.1 13 -10.6 71 71 N 16 26 30.39 1029 10 16 0.00 0.00
7:56 am 07:56 Sunny 17 -8.3 10 -12.2 74 74 N 15 24 30.41 1030 10 16 0.00 0.00
8:56 am 08:56 Sunny 17 -8.3 9 -12.8 70 70 N 14 22 30.44 1031 10 16 0.00 0.00
9:56 am 09:56 Sunny 18 -7.8 9 -12.8 68 68 NW 10 17 30.48 1032 10 16 0.00 0.00
10:56 am 10:56 Sunny 18 -7.8 8 -13.3 65 65 NW 8 13 30.50 1033 10 16 0.00 0.00
11:56 am 11:56 Sunny 20 -6.7 7 -13.9 57 57 NW 8 13 30.48 1032 10 16 0.00 0.00
12:56 pm 12:56 Sunny 23 -5 8 -13.3 53 53 WNW 6 9 30.43 1031 10 16 0.00 0.00
1:56 pm 13:56 Sunny 23 -5 7 -13.9 50 50 NNE 5 7 30.38 1029 10 16 0.00 0.00
2:56 pm 14:56 Sunny 25 -3.9 5 -15 42 42 SE 5 7 30.34 1027 10 16 0.00 0.00
3:56 pm 15:56 Sunny 24 -4.4 8 -13.3 50 50 SE 9 15 30.29 1026 10 16 0.00 0.00
4:56 pm 16:56 Sunny 23 -5 7 -13.9 50 50 SSE 8 13 30.28 1025 10 16 0.00 0.00
5:56 pm 17:56 Clear 21 -6.1 7 -13.9 54 54 SSE 8 13 30.27 1025 10 16 0.00 0.00
6:56 pm 18:56 Clear 21 -6.1 8 -13.3 57 57 SSE 9 15 30.25 1025 10 16 0.00 0.00
7:56 pm 19:56 Partly Cloudy 20 -6.7 9 -12.8 62 62 SSE 12 19 30.21 1023 10 16 0.00 0.00
8:56 pm 20:56 Partly Cloudy 22 -5.6 11 -11.7 63 63 SSE 14 22 30.19 1022 10 16 0.00 0.00
9:56 pm 21:56 Clear 23 -5 12 -11.1 63 63 S 18 30 30.15 1021 10 16 0.00 0.00
10:56 pm 22:56 Mostly Cloudy 24 -4.4 12 -11.1 60 60 S 16 26 30.12 1020 10 16 0.00 0.00
11:56 pm 23:56 Cloudy 25 -3.9 14 -10 63 63 S 17 28 30.10 1019 10 16 0.00 0.00

Powered by AerisWeather